Location: Ida Center
(41.8662°N, 83.5713°W)
Time: 23:16:36
(UTC+00:00)

CZ-4B R/B - Pass Details

Date: 17 November 2019
Orbit: 394 x 468 km, 97.6° (Epoch: 08 December)

Event Time Altitude Azimuth Distance (km) Brightness Sun altitude
Rises 22:35:58 0° 355° (N) 2,443 5.0 -4.9°
Reaches altitude 10° 22:38:25 10° 336° (NNW) 1,581 4.2 -5.4°
Maximum altitude 22:40:46 18° 292° (WNW) 1,191 4.3 -5.8°
Drops below altitude 10° 22:43:08 10° 248° (WSW) 1,597 6.1 -6.2°
Sets 22:45:39 0° 228° (SW) 2,476 6.7 -6.6°
